| time (UTC) | temp C | wind direction | speed KPH | gust KPH | rain 1hr cm | rain 24hr cm | rain mn cm | humidity % | barometer mb |
| 20260831213041 | 28 | 255 | 11.3 | 20.9 | 0.00 | 0.41 | 0.41 | 70 | 1012.7 |
| 20260831211548 | 28 | 235 | 6.4 | 14.5 | 0.00 | 0.41 | 0.41 | 71 | 1012.6 |
| 20260831210047 | 28 | 233 | 8.0 | 14.5 | 0.00 | 0.41 | 0.41 | 70 | 1012.1 |
| 20260831204543 | 28 | 253 | 4.8 | 12.9 | 0.00 | 0.41 | 0.41 | 70 | 1012.0 |
| 20260831203042 | 28 | 271 | 8.0 | 19.3 | 0.00 | 0.41 | 0.41 | 69 | 1012.2 |
| 20260831201541 | 28 | 258 | 6.4 | 14.5 | 0.00 | 0.41 | 0.41 | 67 | 1012.5 |
| 20260831200040 | 29 | 268 | 6.4 | 22.5 | 0.00 | 0.41 | 0.41 | 66 | 1012.2 |
| 20260831194603 | 30 | 262 | 9.7 | 19.3 | 0.00 | 0.41 | 0.41 | 63 | 1012.3 |
| 20260831193041 | 30 | 264 | 9.7 | 24.1 | 0.00 | 0.41 | 0.41 | 60 | 1012.2 |
| 20260831191544 | 30 | 212 | 8.0 | 30.6 | 0.00 | 0.41 | 0.41 | 61 | 1012.3 |
| 20260831190045 | 30 | 264 | 4.8 | 11.3 | 0.00 | 0.41 | 0.41 | 65 | 1012.2 |
| 20260831184541 | 29 | 233 | 8.0 | 19.3 | 0.00 | 0.41 | 0.41 | 66 | 1012.3 |
| 20260831183047 | 28 | 207 | 6.4 | 20.9 | 0.00 | 0.41 | 0.41 | 68 | 1012.5 |
| 20260831181544 | 28 | 238 | 9.7 | 19.3 | 0.00 | 0.41 | 0.41 | 66 | 1012.7 |
| 20260831180050 | 28 | 193 | 6.4 | 16.1 | 0.00 | 0.41 | 0.41 | 66 | 1012.7 |
| 20260831174550 | 28 | 246 | 8.0 | 24.1 | 0.00 | 0.41 | 0.41 | 65 | 1012.9 |
| 20260831173045 | 28 | 207 | 8.0 | 22.5 | 0.00 | 0.41 | 0.41 | 64 | 1012.8 |
| 20260831171546 | 28 | 219 | 4.8 | 19.3 | 0.00 | 0.41 | 0.41 | 66 | 1012.9 |
| 20260831170044 | 28 | 230 | 6.4 | 25.7 | 0.00 | 0.41 | 0.41 | 67 | 1013.0 |
| 20260831164549 | 27 | 229 | 11.3 | 20.9 | 0.00 | 0.41 | 0.41 | 67 | 1013.2 |
| 20260831163043 | 27 | 241 | 6.4 | 16.1 | 0.00 | 0.41 | 0.41 | 70 | 1013.1 |
| 20260831161549 | 26 | 259 | 4.8 | 19.3 | 0.00 | 0.41 | 0.41 | 73 | 1013.1 |
| 20260831160048 | 26 | 191 | 8.0 | 22.5 | 0.00 | 0.41 | 0.41 | 72 | 1013.2 |
| 20260831154610 | 25 | 195 | 6.4 | 17.7 | 0.00 | 0.41 | 0.41 | 73 | 1013.5 |
| 20260831153043 | 25 | 190 | 4.8 | 16.1 | 0.00 | 0.41 | 0.41 | 74 | 1013.6 |
| 20260831151542 | 25 | 203 | 3.2 | 9.7 | 0.00 | 0.41 | 0.41 | 76 | 1013.3 |
| 20260831150044 | 24 | 233 | 4.8 | 11.3 | 0.00 | 0.41 | 0.41 | 77 | 1013.5 |
| 20260831144542 | 23 | 222 | 3.2 | 11.3 | 0.00 | 0.41 | 0.41 | 78 | 1013.3 |
| 20260831143050 | 23 | 179 | 3.2 | 9.7 | 0.00 | 0.41 | 0.41 | 80 | 1013.4 |
| 20260831141551 | 23 | 206 | 3.2 | 11.3 | 0.00 | 0.41 | 0.41 | 81 | 1013.3 |
| 20260831140043 | 22 | 219 | 3.2 | 8.0 | 0.00 | 0.41 | 0.41 | 81 | 1013.3 |
| 20260831134545 | 22 | 198 | 4.8 | 9.7 | 0.00 | 0.41 | 0.41 | 83 | 1013.3 |
| 20260831133044 | 22 | 208 | 3.2 | 11.3 | 0.00 | 0.41 | 0.41 | 84 | 1013.3 |
| 20260831131551 | 22 | 176 | 4.8 | 9.7 | 0.00 | 0.41 | 0.41 | 84 | 1013.2 |
| 20260831130045 | 21 | 195 | 3.2 | 9.7 | 0.00 | 0.41 | 0.41 | 85 | 1013.1 |
| 20260831124544 | 21 | 221 | 3.2 | 11.3 | 0.00 | 0.43 | 0.41 | 86 | 1013.5 |
| 20260831123043 | 21 | 204 | 3.2 | 8.0 | 0.03 | 0.43 | 0.41 | 87 | 1013.5 |
| 20260831121545 | 21 | 0 | 1.6 | 9.7 | 0.03 | 0.43 | 0.41 | 87 | 1013.4 |
| 20260831120053 | 21 | 210 | 3.2 | 8.0 | 0.03 | 0.43 | 0.41 | 87 | 1013.5 |
| 20260831114543 | 21 | 182 | 3.2 | 9.7 | 0.05 | 0.48 | 0.41 | 87 | 1013.6 |
| 20260831113048 | 21 | 186 | 1.6 | 4.8 | 0.05 | 0.46 | 0.38 | 87 | 1013.7 |
| 20260831111545 | 21 | 182 | 1.6 | 3.2 | 0.15 | 0.46 | 0.38 | 87 | 1013.6 |
| 20260831110043 | 21 | 152 | 0.0 | 6.4 | 0.36 | 0.46 | 0.38 | 87 | 1013.6 |
| 20260831104541 | 20 | 188 | 1.6 | 3.2 | 0.36 | 0.81 | 0.36 | 87 | 1013.7 |
| 20260831103044 | 21 | 203 | 3.2 | 4.8 | 0.33 | 0.79 | 0.33 | 87 | 1014.2 |
| 20260831101544 | 21 | 0 | 0.0 | 4.8 | 0.23 | 0.69 | 0.23 | 87 | 1014.7 |
| 20260831100045 | 21 | 290 | 0.0 | 3.2 | 0.03 | 0.48 | 0.03 | 87 | 1014.8 |
| 20260831094541 | 21 | 0 | 0.0 | 0.0 | 0.00 | 0.66 | 0.00 | 87 | 1013.8 |
| 20260831093049 | 21 | 0 | 0.0 | 3.2 | 0.00 | 0.66 | 0.00 | 87 | 1013.6 |
| 20260831091545 | 21 | 0 | 0.0 | 0.0 | 0.00 | 0.66 | 0.00 | 87 | 1013.9 |
| 20260831090043 | 21 | 0 | 0.0 | 1.6 | 0.00 | 0.66 | 0.00 | 87 | 1013.9 |
| 20260831084544 | 21 | 0 | 0.0 | 1.6 | 0.00 | 0.74 | 0.00 | 87 | 1013.9 |
| 20260831083045 | 21 | 0 | 0.0 | 1.6 | 0.00 | 0.74 | 0.00 | 87 | 1013.7 |
| 20260831081543 | 21 | 119 | 0.0 | 1.6 | 0.00 | 0.74 | 0.00 | 87 | 1013.8 |
| 20260831080048 | 21 | 0 | 0.0 | 1.6 | 0.00 | 0.74 | 0.00 | 87 | 1013.8 |
| 20260831074545 | 21 | 0 | 0.0 | 1.6 | 0.00 | 0.79 | 0.00 | 87 | 1014.1 |
| 20260831073050 | 21 | 0 | 0.0 | 0.0 | 0.00 | 0.79 | 0.00 | 87 | 1014.4 |
| 20260831071542 | 21 | 0 | 0.0 | 0.0 | 0.00 | 0.79 | 0.00 | 87 | 1014.6 |
| 20260831070048 | 21 | 0 | 0.0 | 0.0 | 0.00 | 0.79 | 0.00 | 87 | 1014.8 |
| 20260831064544 | 21 | 0 | 0.0 | 0.0 | 0.00 | 0.79 | 0.00 | 87 | 1014.9 |
| 20260831063040 | 21 | 0 | 0.0 | 0.0 | 0.00 | 0.79 | 0.00 | 87 | 1015.1 |
| 20260831061542 | 21 | 0 | 0.0 | 1.6 | 0.00 | 0.79 | 0.00 | 87 | 1015.1 |
| 20260831060054 | 21 | 0 | 0.0 | 0.0 | 0.00 | 0.79 | 0.00 | 87 | 1015.2 |
| 20260831054544 | 22 | 0 | 0.0 | 1.6 | 0.00 | 0.79 | 0.00 | 86 | 1015.1 |
| 20260831053047 | 22 | 0 | 0.0 | 1.6 | 0.00 | 0.79 | 0.00 | 86 | 1015.1 |
| 20260831051552 | 22 | 0 | 0.0 | 0.0 | 0.00 | 0.79 | 0.00 | 85 | 1015.0 |
| 20260831050045 | 22 | 0 | 0.0 | 1.6 | 0.00 | 0.79 | 0.00 | 85 | 1015.1 |
| 20260831044551 | 22 | 0 | 1.6 | 8.0 | 0.00 | 0.79 | 0.79 | 85 | 1015.1 |
| 20260831043047 | 22 | 275 | 0.0 | 8.0 | 0.00 | 0.79 | 0.79 | 84 | 1014.9 |
| 20260831041635 | 22 | 274 | 3.2 | 9.7 | 0.00 | 0.79 | 0.79 | 84 | 1014.4 |
| 20260831040043 | 22 | 252 | 3.2 | 8.0 | 0.00 | 0.79 | 0.79 | 84 | 1014.5 |
| 20260831034545 | 22 | 212 | 3.2 | 8.0 | 0.00 | 0.79 | 0.79 | 85 | 1014.0 |
| 20260831033042 | 22 | 225 | 3.2 | 11.3 | 0.00 | 0.79 | 0.79 | 85 | 1013.8 |
| 20260831031545 | 22 | 202 | 3.2 | 9.7 | 0.00 | 0.79 | 0.79 | 85 | 1014.0 |
| 20260831030050 | 22 | 278 | 1.6 | 8.0 | 0.00 | 0.79 | 0.79 | 85 | 1014.6 |
| 20260831024602 | 22 | 245 | 3.2 | 12.9 | 0.00 | 0.79 | 0.79 | 85 | 1015.0 |
| 20260831023045 | 22 | 229 | 1.6 | 12.9 | 0.00 | 0.79 | 0.79 | 85 | 1014.9 |
| 20260831021549 | 22 | 216 | 3.2 | 9.7 | 0.00 | 0.79 | 0.79 | 85 | 1014.6 |
| 20260831020043 | 22 | 227 | 3.2 | 11.3 | 0.00 | 0.79 | 0.79 | 85 | 1014.8 |
| 20260831014549 | 22 | 234 | 4.8 | 14.5 | 0.00 | 0.79 | 0.79 | 85 | 1014.5 |
| 20260831013052 | 22 | 200 | 8.0 | 20.9 | 0.00 | 0.79 | 0.79 | 85 | 1014.7 |
| 20260831011551 | 22 | 274 | 4.8 | 19.3 | 0.00 | 0.79 | 0.79 | 86 | 1014.6 |
| 20260831010114 | 22 | 249 | 4.8 | 14.5 | 0.00 | 0.79 | 0.79 | 86 | 1014.2 |
| 20260831004544 | 22 | 182 | 3.2 | 16.1 | 0.00 | 0.79 | 0.79 | 86 | 1014.2 |
| 20260831003044 | 22 | 223 | 3.2 | 11.3 | 0.00 | 0.79 | 0.79 | 86 | 1013.8 |
| 20260831001548 | 22 | 259 | 4.8 | 14.5 | 0.00 | 0.79 | 0.79 | 85 | 1013.8 |
| 20260830234543 | 23 | 200 | 1.6 | 9.7 | 0.00 | 0.79 | 0.79 | 84 | 1013.7 |
| 20260830233051 | 23 | 226 | 1.6 | 11.3 | 0.00 | 0.79 | 0.79 | 84 | 1013.9 |
| 20260830231548 | 23 | 224 | 1.6 | 12.9 | 0.00 | 0.79 | 0.79 | 85 | 1013.9 |
| 20260830230053 | 23 | 224 | 1.6 | 11.3 | 0.00 | 0.79 | 0.79 | 85 | 1013.8 |
| 20260830224549 | 23 | 225 | 1.6 | 8.0 | 0.00 | 1.04 | 0.79 | 85 | 1013.8 |
| 20260830223125 | 23 | 138 | 4.8 | 9.7 | 0.00 | 1.04 | 0.79 | 84 | 1013.9 |
| 20260830221552 | 23 | 164 | 3.2 | 6.4 | 0.00 | 1.04 | 0.79 | 84 | 1014.1 |
| 20260830220046 | 23 | 217 | 3.2 | 9.7 | 0.00 | 1.04 | 0.79 | 83 | 1014.0 |
| 20260830214543 | 23 | 214 | 3.2 | 9.7 | 0.00 | 1.22 | 0.79 | 82 | 1013.9 |